sat.trackr.live / text

‹ back to catalog

STARLINK-36978

NORAD 68960 · 2026-099K

PAYLOAD ACTIVE UNKNOWN

§ Identity

Operator
Country
US
Launch date
2026-05-01
Launch site
AFETR
Launch vehicle
Mass (kg)
RCS (m²)

Purposes: comms

External: N2YO · Heavens-Above · Gunter

§ Orbital elements

Epoch: 2026-05-25T04:00:03.998880Z

Period
92.95 min
Inclination
53.1591°
Eccentricity
0.0001821
Mean motion
15.49251379 rev/d
Perigee alt
417.7 km
Apogee alt
420.2 km
Semi-major
6,797.1 km
B*
1.8669e-3
RAAN
270.8149°
Arg perigee
53.4740°
Mean anomaly
233.6993°
Rev number
501

§ Raw data

STARLINK-369781 68960U 26099K   26145.16671295  .00104572  00000+0  18669-2 0  99902 68960  53.1591 270.8149 0001821  53.4740 233.6993 15.49251379  5018

JSON: /api/v1/satellites/68960 · /tle

For live sub-satellite position, see the globe view (requires WebGL).

§ Visibility from observer

Set your observer location to see the next 7 days of passes ≥ 10°. The values pass through the URL so the page stays shareable.

No JS? Fill the form by hand. The geolocation button needs JavaScript.